Regional Weather Roundup
Issued by NWS

Home | Current Version | Previous Version | Text Only | Print | Product List | Glossary On
Versions: 1 2 3 4 5 6 7 8 9 10 11 12 13 14 15 16 17 18 19 20 21 22 23 24 25 26 27 28 29 30 31 32 33 34 35 36 37 38 39 40 41 42 43 44 45 46 47 48 49
000
ASUS42 KKEY 270810
RWRKEY

FLORIDA REGIONAL WEATHER ROUNDUP FOR THE FLORIDA KEYS
NATIONAL WEATHER SERVICE KEY WEST FLORIDA
300 AM EST TUE JAN 27 2015

...SOUTH FLORIDA AND THE KEYS...

CITY           SKY/WX    TMP DP  RH WIND       PRES   REMARKS
FORT MYERS     CLEAR     55  48  77 NW6       29.99R
SW REGIONAL AP CLEAR     56  47  71 CALM      30.00R
NAPLES         MOCLDY    62  51  67 NW8G21    30.00R
MIAMI          CLEAR     58  49  72 NW6       29.99F
WEST KENDALL   CLEAR     52  49  89 W7        29.99F
HOMESTEAD      CLEAR     56  49  79 NW8       29.99F
MARATHON       MOCLDY    66  56  70 NW10G21   30.00S
BOCA CHICA NAS PTCLDY    66  52  60 NW16      30.01F
KEY WEST INTL  PTCLDY    65  54  67 NW15G22   30.02S

...INTERNATIONAL WEATHER...

CITY           SKY/WX    TMP DP  RH WIND       PRES   REMARKS
NASSAU BAHAMAS PTCLDY    68  52  56 NW20      29.95R
CANCUN MEXICO  CLEAR     55  55 100 W2        30.11F
COZUMEL MEXICO CLEAR     64  59  82 NW14      30.12F

ADJACENT COASTAL WATERS...

STATION/POSITION TIME  SKY/WX   TEMP    WIND        PRES    WAVE
                                AIR SEA DIR/SP/G            HT/PER
                 (UTC)          (F)     (DEG/KT/KT) (MB)    (FT/S)
PULASKI SHOAL LI NOT AVBL
SAND KEY         NOT AVBL
SOMBRERO KEY     NOT AVBL
LONG KEY         NOT AVBL
MOLASSES REEF    NOT AVBL
FOWEY ROCKS      NOT AVBL
Buoy 42080       NOT AVBL

$$



USA.gov is the U.S. government's official web portal to all federal, state and local government web resources and services.